Hourly Weather Roundup
Issued by NWS Central Illinois

Home | Current Version | Previous Version | Text Only | Print | Product List | Glossary On
Versions: 1 2 3 4 5 6 7 8 9 10 11 12 13 14 15 16 17 18 19 20 21 22 23 24 25 26 27 28 29 30 31 32 33 34 35 36 37 38 39 40 41 42 43 44 45 46 47 48 49 50
000
NZUS43 KILX 060310
HWRILX

AREA WEATHER ROUNDUP
NATIONAL WEATHER SERVICE, LINCOLN IL
1000 PM CDT SUN JUL 05 2015


CITY           SKY/WX    TMP DP  RH WIND       PRES   REMARKS
BLOOMINGTON    CLEAR     71  67  87 S8        30.05R
CHAMPAIGN      CLEAR     69  67  93 SE5       30.06R FOG
DANVILLE       CLEAR     67  65  92 SE3       30.03S FOG
DECATUR        CLEAR     68  65  90 CALM      30.04R
EFFINGHAM      CLEAR     71  68  89 CALM      30.07R FOG
FLORA          CLEAR     72  71  95 E3        30.06R FOG
GALESBURG      CLEAR     71  66  83 SE3       29.99S
JACKSONVILLE   PTCLDY    75  70  83 SE6       30.01S
LACON          CLEAR     73  65  76 SE8       30.00S
LAWRENCEVILLE  PTCLDY    73  69  87 SE6       30.07R
LITCHFIELD     FAIR      72  65  81 SE6       30.04R
$$


CITY           SKY/WX    TMP DP  RH WIND       PRES   REMARKS
LINCOLN        CLEAR     72  66  83 S3        30.03R
MACOMB         PTCLDY    71  69  93 SE5       30.01R FOG
MATTOON        CLEAR     71  69  93 CALM      30.05R FOG
MT CARMEL AP   CLEAR     77  72  83 CALM      30.06R
OLNEY-NOBLE AP CLEAR     72  70  94 CALM      30.06R
PARIS          CLEAR     71  68  90 SE3       30.06S
PEORIA         CLEAR     75  65  70 SE6       30.01R
PONTIAC        CLEAR     68  66  94 SE5       30.04R FOG
RANTOUL        CLEAR     73  69  88 CALM      30.05S
ROBINSON       PTCLDY    72  70  93 CALM      30.07R FOG
SPRINGFIELD    PTCLDY    75  66  73 S7        30.02R
TAYLORVILLE    CLEAR     70  64  83 SE6       30.04R
$$

...REGIONAL REPORTS...


CITY           SKY/WX    TMP DP  RH WIND       PRES   REMARKS
CHICAGO O`HARE CLEAR     73  61  65 S7        30.02R
KANKAKEE       CLEAR     71  64  78 CALM      30.04S
MOLINE         CLEAR     72  66  81 SE6       29.97S
MOUNT STERLING NOT AVBL
MOUNT VERNON   CLEAR     70  63  78 CALM      30.07R
PITTSFIELD     PTCLDY    74  69  86 SE5       30.02R HAZE
QUINCY         CLEAR     73  68  84 SE7       29.98R HAZE
ROCKFORD       PTCLDY    71  63  75 S7        30.01S
$$


CITY           SKY/WX    TMP DP  RH WIND       PRES   REMARKS
BURLINGTON     CLEAR     75  69  81 S10       29.97R
CEDAR RAPIDS   CLEAR     73  70  90 SE7       29.93S
DES MOINES     PTCLDY    79  68  69 SE14      29.86F HX  81
KIRKSVILLE     CLEAR     74  68  81 S8        29.97R
OTTUMWA        CLEAR     76  69  79 SE10      29.91R
ST LOUIS       MOCLDY    82  66  58 SE10      30.02R HX  84
$$


CITY           SKY/WX    TMP DP  RH WIND       PRES   REMARKS
TERRE HAUTE    CLEAR     73  68  84 SE5       30.06R
EVANSVILLE     CLEAR     76  69  79 CALM      30.07R HAZE
INDIANAPOLIS   PTCLDY    72  61  68 SE5       30.06S
LAFAYETTE      CLEAR     67  64  90 CALM      30.05R
MADISON        MOCLDY    75  64  68 S8        29.98S
MILWAUKEE      PTCLDY    71  59  65 S6        30.01R
$$





USA.gov is the U.S. government's official web portal to all federal, state and local government web resources and services.